Wind_Speed
13 15 14 14 15 15 16 16 15 15 14 16 17 17 17 16 16 17 17 17 18 19 19 19 18 16 18 18 18 19 20 20 19 21 22 22 22 21 21 22 22 22 21 21
12 13 13 15 15 15 16 16 15 15 15 17 17 18 17 18 19 19 19 19 20 20 19 19 19 19 18 19 20 19 20 20 21 21 22 22 22 21 21 21 21 20 20 20
12 12 13 14 14 15 16 17 16 15 15 17 18 19 19 20 21 22 22 22 22 21 20 19 18 19 19 20 20 20 21 21 21 22 22 22 22 22 21 20 20 20 20 20
11 12 13 14 15 16 16 17 17 16 17 18 20 21 21 22 24 25 24 24 22 22 18 18 19 20 19 20 21 21 21 21 22 22 23 23 22 22 22 21 21 20 20 20
12 13 14 15 16 16 17 18 19 19 19 20 21 24 24 24 25 26 25 24 23 22 20 19 19 20 20 21 21 22 21 22 22 23 23 23 23 23 23 23 23 21 21 22
12 13 15 15 16 17 18 19 20 21 22 23 22 24 25 24 24 26 24 24 24 23 21 20 20 20 19 20 21 21 22 22 23 23 24 24 25 25 25 24 23 23 23 22
12 13 14 14 15 17 19 20 21 22 23 24 23 25 25 24 25 27 26 27 26 25 23 22 21 20 19 19 20 21 21 23 24 24 26 26 26 25 25 24 24 23 23 21
12 13 13 15 16 17 19 20 22 23 23 23 23 25 24 24 24 25 27 26 25 25 24 23 22 21 20 20 20 21 22 23 25 25 26 26 26 26 25 25 24 24 23 22
12 12 14 16 17 18 18 19 21 23 23 23 21 21 22 23 23 22 24 24 25 24 24 24 24 22 22 21 21 22 23 24 25 25 26 27 26 26 25 25 25 24 24 23
14 14 14 16 17 18 20 20 20 22 23 23 22 21 22 21 21 21 22 23 22 23 24 24 23 22 22 21 22 22 23 24 25 26 26 26 25 25 24 24 24 24 24 23
16 15 15 16 17 17 18 20 21 22 22 23 23 22 22 21 20 20 20 21 21 20 21 22 22 22 21 21 21 23 24 24 25 26 26 25 25 24 24 24 24 24 23 22
14 14 14 14 15 17 19 20 21 22 22 22 23 22 20 20 19 19 19 20 21 20 19 18 20 21 22 22 22 23 23 24 25 25 25 25 25 25 25 24 24 24 23 22
14 14 15 14 14 15 17 19 21 22 23 23 23 22 20 20 20 19 19 20 20 19 19 20 21 22 22 22 23 23 23 24 24 24 24 24 25 25 24 24 24 23 23 22
14 14 14 13 12 14 16 17 18 20 22 22 22 21 20 21 20 20 19 20 21 21 19 19 20 21 21 21 22 22 23 23 24 24 24 24 24 24 23 23 23 22 22 21
13 13 13 12 13 13 14 15 16 17 20 20 20 19 19 20 20 20 21 21 20 19 20 19 19 20 21 22 22 23 23 24 24 25 25 25 24 23 23 23 22 21 20 20
12 12 12 12 11 11 11 12 13 15 17 18 18 18 19 20 20 21 22 23 22 21 21 20 20 21 21 21 22 22 23 23 23 23 23 23 23 22 22 21 21 21 21 21
12 12 12 11 11 10 11 11 12 13 15 16 17 17 18 19 20 20 21 21 20 20 20 20 20 20 20 21 22 21 21 21 21 22 21 22 22 21 20 21 21 21 20 20
11 12 11 11 11 10 10 11 11 11 12 13 14 15 16 18 19 19 20 21 20 20 20 19 19 20 20 21 20 19 19 19 19 19 20 20 20 19 19 19 19 19 19 19
10 10 10 11 10 9 9 10 10 11 11 12 13 14 15 16 17 18 19 19 18 19 18 18 18 18 19 19 19 19 18 18 18 18 18 18 18 17 17 17 16 16 17 17
10 9 9 10 9 9 9 10 10 11 11 12 12 13 14 15 16 16 17 17 17 17 17 17 16 16 17 18 18 18 18 18 17 17 17 17 16 16 15 14 14 14 14 13
9 9 9 9 9 9 10 10 11 12 12 12 13 14 14 14 15 16 17 17 16 15 15 14 14 15 15 16 16 16 16 16 15 14 14 14 13 13 12 12 13 12 11 10
7 8 8 9 10 9 9 10 11 12 13 13 13 14 14 14 15 15 15 15 13 12 12 12 13 13 14 14 15 15 15 14 13 12 12 11 11 11 10 11 10 10 9 8
6 6 7 8 9 9 10 11 12 12 13 13 13 14 14 14 14 14 13 12 11 10 10 11 12 12 12 12 13 13 13 12 11 11 10 9 9 9 9 8 8 7 7 7
5 6 6 7 8 9 10 11 12 12 13 13 13 13 13 13 13 12 11 11 10 9 9 10 10 11 11 10 11 11 10 10 9 9 9 8 8 8 7 6 5 5 6 6
6 6 6 7 8 9 10 10 11 12 12 12 12 12 12 12 11 11 10 10 9 9 9 9 9 9 9 9 9 9 9 9 8 7 7 6 6 5 5 4 3 3 4 4
6 6 6 7 8 9 9 9 10 11 12 12 12 12 12 11 11 10 9 9 8 8 8 8 8 8 8 8 8 9 8 7 7 6 5 5 5 4 3 3 3 3 2 1
Wind_Direction
231 230 229 230 231 233 234 235 237 237 238 246 251 258 261 265 272 276 279 284 287 283 276 275 274 270 270 273 273 275 276 277 280 286 288 289 290 289 288 288 288 287 284 282
232 232 228 228 231 236 236 235 238 239 241 247 255 261 265 267 271 277 280 281 284 282 279 276 273 276 272 273 273 275 278 280 281 286 287 288 288 288 287 288 285 285 283 281
233 232 233 233 234 237 238 238 243 246 244 249 258 262 266 267 271 276 278 280 281 279 278 276 275 277 273 271 272 276 277 279 283 286 287 287 287 287 287 288 288 286 285 280
236 233 234 239 238 240 237 240 246 245 247 249 254 259 263 268 271 275 277 279 279 281 281 285 283 278 273 270 272 274 274 278 282 285 287 286 287 287 288 290 289 284 283 283
245 238 237 242 243 242 239 240 245 245 249 250 252 258 262 264 268 274 278 280 281 284 286 286 285 279 276 277 272 272 273 276 279 283 285 285 286 285 286 287 286 285 283 283
255 249 249 250 250 245 243 241 243 243 246 249 252 259 262 265 270 275 277 282 281 281 282 280 281 280 279 279 276 273 275 277 279 283 285 286 285 285 285 285 284 285 284 282
256 254 255 254 253 247 246 245 244 242 245 250 255 261 265 265 269 271 274 276 277 274 277 279 278 279 282 281 278 275 275 277 280 282 284 286 286 284 283 281 283 284 283 282
265 258 257 255 255 250 249 248 248 249 251 254 257 262 267 268 272 269 270 271 273 273 278 280 281 283 281 281 279 278 277 280 282 284 284 285 285 283 280 280 282 283 283 282
273 264 260 256 256 250 248 249 249 252 254 259 260 263 266 269 272 272 269 273 274 277 278 279 283 280 280 281 281 280 280 282 284 286 287 286 283 282 281 280 281 282 282 280
278 272 265 262 259 253 250 251 253 254 258 263 265 267 273 273 275 279 276 274 273 275 275 277 280 280 280 281 282 281 282 283 285 285 286 284 284 284 282 281 280 281 280 279
277 277 272 264 258 254 249 249 251 254 258 263 267 269 274 277 279 280 282 277 275 275 277 279 279 280 280 281 283 284 282 283 284 286 285 285 286 286 284 283 282 281 279 278
277 278 276 274 265 256 251 252 253 255 257 263 268 271 276 279 283 283 284 286 285 282 285 283 278 278 281 282 283 285 286 285 285 285 285 285 285 286 284 282 281 280 278 276
275 279 282 277 268 260 255 255 258 261 262 264 268 274 279 279 282 283 284 286 287 288 284 281 280 282 284 283 284 285 287 287 287 287 287 287 286 285 283 282 280 279 276 274
274 282 286 282 276 269 259 258 260 263 266 268 271 275 278 279 282 283 286 288 288 289 288 283 281 283 284 284 284 285 287 288 288 289 288 287 286 284 283 282 280 278 275 274
274 280 286 286 284 278 261 259 262 266 269 270 273 275 277 279 282 285 287 289 290 291 289 287 285 285 285 284 285 286 288 288 288 289 287 286 285 284 282 281 279 277 275 274
274 280 285 287 287 283 273 267 265 269 273 277 278 278 280 281 282 284 287 289 292 291 291 290 289 287 285 287 288 290 290 288 288 289 288 286 286 284 281 278 277 276 275 273
273 279 281 282 282 281 281 277 275 277 280 283 283 282 281 287 289 291 293 294 293 292 291 291 290 291 290 292 297 293 292 289 288 289 288 288 287 284 280 278 278 279 278 274
272 276 276 276 276 277 290 288 288 284 284 289 290 289 292 295 298 300 298 297 293 291 293 292 291 293 295 297 300 297 295 291 290 290 290 289 289 284 279 278 279 280 278 277
281 284 285 281 275 279 287 295 298 297 293 294 294 295 299 301 302 303 301 301 297 295 295 293 292 296 298 298 300 300 297 295 293 292 292 292 291 286 281 280 281 281 279 277
276 280 284 286 282 286 296 300 302 306 305 302 300 303 303 303 305 306 305 304 299 296 296 295 296 298 299 299 300 299 297 295 296 296 293 293 292 288 284 282 282 284 283 277
276 280 286 287 288 292 303 309 309 308 312 307 305 307 307 309 310 309 309 307 300 297 296 296 297 298 298 299 300 299 298 297 296 298 298 296 294 290 287 284 283 284 282 275
281 283 286 287 292 300 307 313 315 319 317 315 312 313 311 312 312 310 311 310 306 302 298 299 302 304 304 302 303 302 300 298 296 297 299 297 294 294 292 289 285 284 276 270
282 287 290 295 300 304 313 318 321 325 325 320 318 320 320 318 315 314 316 314 308 308 307 307 311 311 309 308 308 308 308 305 301 299 302 299 296 297 297 294 287 278 267 264
287 291 295 303 313 315 316 319 322 325 327 325 323 327 326 325 323 321 322 320 319 320 318 318 321 319 317 318 319 316 315 313 310 305 306 308 304 305 305 298 286 270 262 259
282 294 305 311 316 319 323 323 324 328 329 329 332 335 336 334 332 328 329 328 326 327 327 326 328 331 331 330 329 330 329 326 324 319 317 316 313 309 310 306 296 285 270 254
281 295 303 311 316 322 326 326 330 333 333 332 334 338 344 345 345 344 340 338 338 339 339 343 346 346 345 343 342 343 346 346 344 345 341 336 334 328 323 314 310 305 289 234
Height
5855 5858 5858 5860 5861 5861 5862 5863 5863 5864 5864 5865 5864 5864 5864 5864 5864 5864 5863 5863 5862 5862 5861 5861 5860 5859 5860 5860 5860 5859 5859 5857 5856 5856 5855 5854 5853 5852 5850 5848 5846 5844 5843 5842
5853 5854 5855 5855 5856 5857 5858 5858 5859 5860 5860 5860 5860 5860 5860 5859 5859 5860 5859 5859 5859 5857 5857 5856 5856 5856 5856 5856 5855 5854 5854 5853 5852 5851 5850 5849 5848 5847 5846 5843 5841 5839 5838 5836
5849 5851 5851 5851 5852 5853 5854 5855 5855 5856 5856 5856 5856 5856 5856 5855 5855 5855 5855 5855 5855 5854 5852 5852 5852 5852 5851 5851 5850 5850 5849 5848 5847 5846 5845 5844 5843 5841 5840 5839 5836 5835 5833 5831
5846 5847 5847 5847 5849 5849 5850 5851 5851 5851 5851 5851 5852 5851 5852 5851 5850 5850 5850 5850 5850 5849 5848 5848 5847 5847 5846 5846 5845 5845 5844 5843 5843 5841 5840 5839 5837 5836 5835 5833 5832 5830 5828 5827
5843 5843 5843 5844 5845 5845 5846 5846 5847 5847 5847 5847 5847 5847 5848 5847 5846 5846 5846 5845 5845 5844 5844 5843 5843 5842 5841 5840 5840 5839 5839 5838 5837 5836 5835 5833 5832 5830 5829 5828 5827 5825 5823 5822
5840 5840 5840 5840 5841 5841 5841 5842 5842 5842 5843 5843 5844 5843 5843 5843 5842 5841 5840 5841 5840 5840 5839 5839 5838 5837 5836 5835 5834 5834 5833 5832 5831 5830 5829 5827 5826 5824 5823 5822 5820 5819 5817 5816
5837 5837 5837 5837 5837 5837 5837 5838 5838 5838 5838 5838 5839 5838 5838 5838 5838 5836 5835 5835 5835 5834 5834 5834 5832 5831 5831 5830 5829 5828 5828 5827 5825 5824 5823 5821 5820 5818 5816 5815 5813 5812 5811 5809
5833 5834 5833 5832 5833 5833 5833 5834 5834 5834 5834 5834 5834 5833 5834 5832 5832 5831 5829 5829 5829 5829 5828 5828 5827 5826 5826 5825 5824 5823 5822 5820 5819 5818 5816 5814 5813 5811 5810 5808 5807 5806 5804 5803
5829 5830 5829 5828 5828 5828 5828 5828 5829 5829 5829 5829 5829 5829 5829 5828 5827 5825 5824 5824 5823 5823 5823 5822 5822 5821 5820 5818 5818 5817 5815 5814 5812 5811 5809 5807 5806 5804 5802 5801 5800 5798 5797 5796
5825 5825 5825 5824 5824 5824 5824 5824 5824 5824 5824 5824 5824 5824 5824 5823 5822 5821 5819 5818 5818 5817 5816 5815 5815 5814 5813 5812 5811 5810 5809 5807 5806 5804 5802 5800 5798 5797 5795 5794 5792 5791 5790 5789
5820 5820 5820 5819 5819 5819 5819 5819 5819 5819 5819 5819 5818 5821 5819 5817 5817 5815 5813 5812 5812 5811 5809 5808 5808 5807 5806 5805 5805 5804 5802 5800 5799 5797 5795 5793 5791 5790 5788 5787 5785 5784 5783 5782
5816 5816 5815 5815 5814 5814 5814 5814 5814 5814 5814 5814 5813 5816 5813 5812 5811 5809 5808 5807 5806 5806 5804 5803 5802 5802 5800 5799 5798 5796 5795 5793 5791 5789 5788 5786 5784 5782 5781 5779 5778 5777 5776 5775
5812 5812 5811 5811 5812 5810 5809 5809 5808 5809 5809 5809 5808 5811 5808 5807 5806 5804 5803 5802 5801 5800 5797 5797 5796 5795 5794 5792 5791 5789 5787 5786 5784 5782 5780 5778 5777 5775 5773 5772 5770 5769 5769 5768
5809 5808 5808 5807 5806 5804 5804 5804 5804 5804 5803 5803 5803 5803 5803 5802 5801 5799 5798 5797 5796 5794 5792 5791 5790 5789 5788 5786 5784 5783 5781 5779 5777 5775 5773 5771 5769 5767 5766 5764 5763 5763 5762 5761
5806 5805 5804 5803 5802 5800 5799 5799 5800 5799 5798 5798 5797 5797 5797 5796 5795 5794 5793 5792 5790 5788 5787 5786 5784 5783 5782 5780 5778 5776 5774 5771 5769 5767 5765 5763 5762 5760 5758 5757 5757 5756 5755 5754
5803 5802 5802 5801 5799 5797 5796 5796 5796 5795 5794 5793 5793 5793 5792 5792 5790 5789 5787 5785 5784 5783 5782 5781 5779 5777 5776 5774 5772 5769 5767 5764 5762 5760 5758 5756 5754 5753 5751 5750 5750 5749 5748 5748
5800 5800 5799 5798 5797 5795 5794 5793 5792 5792 5791 5790 5789 5789 5787 5786 5784 5782 5781 5779 5778 5776 5775 5774 5773 5771 5769 5767 5765 5762 5759 5757 5755 5753 5751 5749 5747 5746 5745 5744 5743 5742 5741 5741
5797 5797 5796 5795 5795 5794 5794 5790 5790 5788 5787 5786 5785 5784 5783 5781 5779 5777 5775 5773 5772 5770 5769 5768 5766 5764 5763 5760 5758 5756 5753 5751 5749 5747 5745 5743 5741 5739 5738 5737 5736 5735 5735 5734
5795 5794 5793 5792 5791 5791 5791 5789 5787 5785 5784 5783 5782 5780 5779 5777 5775 5773 5770 5767 5766 5765 5763 5762 5760 5758 5756 5754 5752 5750 5748 5746 5743 5741 5739 5737 5735 5734 5733 5731 5731 5729 5729 5728
5793 5792 5791 5790 5789 5789 5789 5787 5784 5784 5782 5780 5778 5776 5775 5773 5771 5769 5765 5762 5760 5759 5757 5756 5754 5752 5751 5749 5747 5745 5743 5740 5738 5736 5734 5732 5730 5728 5727 5726 5726 5725 5724 5723
5790 5790 5789 5787 5786 5786 5786 5783 5782 5781 5780 5777 5774 5772 5770 5768 5767 5764 5760 5758 5756 5754 5753 5751 5749 5748 5746 5744 5742 5740 5737 5735 5733 5731 5729 5727 5725 5724 5723 5722 5721 5720 5720 5719
5788 5787 5786 5785 5784 5786 5783 5781 5780 5778 5775 5773 5770 5768 5766 5764 5761 5759 5757 5754 5752 5750 5748 5747 5745 5743 5742 5740 5738 5735 5733 5731 5729 5727 5725 5723 5722 5721 5719 5718 5717 5717 5716 5716
5785 5786 5785 5784 5784 5782 5780 5778 5776 5774 5772 5769 5767 5765 5762 5760 5758 5755 5753 5751 5749 5747 5745 5744 5742 5740 5738 5736 5734 5732 5729 5727 5725 5723 5722 5720 5719 5718 5717 5716 5715 5714 5714 5714
5784 5783 5783 5782 5780 5779 5778 5775 5773 5771 5769 5766 5764 5761 5759 5757 5754 5752 5750 5748 5746 5744 5742 5741 5739 5737 5735 5733 5731 5729 5726 5724 5722 5721 5719 5718 5717 5716 5715 5713 5713 5712 5712 5712
5782 5781 5781 5780 5779 5777 5775 5773 5771 5769 5766 5764 5761 5759 5756 5754 5752 5750 5748 5746 5744 5742 5740 5738 5737 5735 5733 5731 5729 5727 5725 5723 5721 5719 5718 5716 5715 5714 5713 5712 5711 5711 5710 5710
5780 5780 5779 5778 5777 5775 5774 5771 5769 5767 5764 5762 5760 5757 5755 5752 5750 5748 5746 5744 5742 5740 5739 5737 5735 5733 5731 5729 5727 5725 5723 5722 5720 5718 5717 5715 5714 5713 5712 5711 5711 5710 5710 5710